Regional Weather Roundup
Issued by NWS

Home | Current Version | Previous Version | Text Only | Print | Product List | Glossary On
Versions: 1 2 3 4 5 6 7 8 9 10 11 12 13 14 15 16 17 18 19 20 21 22 23 24 25 26 27 28 29 30 31 32 33 34 35 36 37 38 39 40 41 42 43 44 45 46 47 48 49 50
000
ASUS43 KFSD 131810
RWRSD

WEATHER ROUNDUP FOR SOUTH DAKOTA
NATIONAL WEATHER SERVICE SIOUX FALLS SD
1200 PM CST WED DEC 13 2017

NOTE: "FAIR" INDICATES FEW OR NO CLOUDS BELOW 12,000 FEET WITH NO
SIGNIFICANT WEATHER AND/OR OBSTRUCTIONS TO VISIBILITY.


SDZ001>005-009-010-012>017-131900-
NORTHWEST AND NORTH CENTRAL SOUTH DAKOTA

CITY           SKY/WX    TMP DP  RH WIND       PRES   REMARKS
BUFFALO          N/A     39  26  59 W23G30    29.99F
FAITH            N/A     41  27  57 NW31G38   29.97F
MOBRIDGE       CLOUDY    40  29  64 NW20G33   29.90R
$$

SDZ012>016-024>037-041>051-057-063-072>074-131900-
SOUTHWEST AND SOUTH CENTRAL SOUTH DAKOTA

CITY           SKY/WX    TMP DP  RH WIND       PRES   REMARKS
RAPID CTY ARPT CLOUDY    44  21  40 NW32G40   30.03F
PIERRE         SUNNY     44  30  57 NW28G35   29.92F
CUSTER         CLOUDY    40  10  29 N12G20    30.02F
ELLSWORTH AFB  MOSUNNY   45  22  39 NW31G39   30.01F
PHILIP         SUNNY     46  26  45 NW29G39   29.99F
PINE RIDGE     SUNNY     47  23  38 NW20G26   30.05F
SPEARFISH      FAIR      39  21  48 W21G31    30.08F
WINNER         FAIR      46  28  49 NW28G40   29.94F
$$

SDZ004>011-016>023-039-040-131900-
NORTHEAST SOUTH DAKOTA

CITY           SKY/WX    TMP DP  RH WIND       PRES   REMARKS
ABERDEEN       CLOUDY    38  29  70 NW25G31   29.85S
WATERTOWN      CLOUDY    33  29  85 N24G32    29.78R WCI  20
BROOKINGS      CLOUDY    36  28  73 NW22G32   29.76R
SISSETON         N/A     34  28  79 N24       29.77R WCI  21
$$

SDZ017-020-022-023-036>040-048>070-131900-
SOUTHEAST SOUTH DAKOTA

CITY           SKY/WX    TMP DP  RH WIND       PRES   REMARKS
SIOUX FALLS    CLOUDY    39  31  72 NW22G37   29.78R
HURON          CLOUDY    39  30  70 NW23G31   29.85R
CHAMBERLAIN    SUNNY     46  31  57 NW21G32   29.90F
MITCHELL       CLOUDY    41  30  65 NW23G33   29.86F
$$

ABBREVIATIONS USED IN REMARKS
   TC - TEMPERATURE IN CELSIUS
  WCI - WIND CHILL INDEX
   HX - HEAT INDEX
  VSB - VISIBILITY





USA.gov is the U.S. government's official web portal to all federal, state and local government web resources and services.